• In Hungary
  • List of Countries
  • For 7 days
  • Water Temperature
  • Satellite Maps
  • Weather Map
  • News
  • Weather Widgets
  • user-avatar
    Login

    Hourly Weather Ordino

    Today, 22 November, Wednesday

    Time Temperature Precipitation Wind Pressure Humidity
    00:00 +4°C° 0 mm 1 mps 633 mmHg 54%
    01:00 +4°C° 0 mm 1 mps 632 mmHg 52%
    02:00 +4°C° 0 mm 1 mps 632 mmHg 51%
    03:00 +4°C° 0 mm 1 mps 632 mmHg 49%
    04:00 +3°C° 0 mm 1 mps 631 mmHg 47%
    05:00 +3°C° 0 mm 1 mps 631 mmHg 45%
    06:00 +3°C° 0 mm 1 mps 631 mmHg 43%
    07:00 +5°C° 0 mm 1 mps 631 mmHg 41%
    08:00 +7°C° 0 mm 1 mps 632 mmHg 39%
    09:00 +7°C° 0 mm 2 mps 633 mmHg 37%
    10:00 +9°C° 0 mm 2 mps 633 mmHg 35%
    11:00 +10°C° 0 mm 2 mps 633 mmHg 33%
    12:00 +13°C° 0 mm 2 mps 633 mmHg 31%
    13:00 +12°C° 0 mm 2 mps 633 mmHg 33%
    14:00 +10°C° 0 mm 2 mps 632 mmHg 36%
    15:00 +10°C° 0 mm 2 mps 632 mmHg 39%
    16:00 +7°C° 0 mm 2 mps 631 mmHg 43%
    17:00 +5°C° 0 mm 2 mps 630 mmHg 46%
    18:00 +4°C° 0 mm 1 mps 629 mmHg 50%
    19:00 +4°C° 0 mm 1 mps 630 mmHg 48%
    20:00 +3°C° 0 mm 1 mps 630 mmHg 45%
    21:00 +2°C° 0 mm 2 mps 630 mmHg 42%
    22:00 +2°C° 0 mm 2 mps 630 mmHg 43%
    23:00 +2°C° 0 mm 2 mps 630 mmHg 43%

    Tomorrow, 23 November, Thursday

    Time Temperature Precipitation Wind Pressure Humidity
    00:00 +2°C° 0 mm 2 mps 630 mmHg 43%
    01:00 +2°C° 0 mm 2 mps 630 mmHg 43%
    02:00 +3°C° 0 mm 1 mps 630 mmHg 43%
    03:00 +3°C° 0 mm 1 mps 630 mmHg 43%
    04:00 +3°C° 0 mm 1 mps 630 mmHg 44%
    05:00 +3°C° 0 mm 1 mps 630 mmHg 45%
    06:00 +4°C° 0 mm 1 mps 630 mmHg 46%
    07:00 +5°C° 0 mm 1 mps 631 mmHg 46%
    08:00 +7°C° 0 mm 1 mps 632 mmHg 46%
    09:00 +8°C° 0 mm 1 mps 633 mmHg 46%
    10:00 +10°C° 0 mm 1 mps 634 mmHg 45%
    11:00 +11°C° 0 mm 1 mps 634 mmHg 43%
    12:00 +12°C° 0 mm 2 mps 635 mmHg 41%
    13:00 +12°C° 0 mm 2 mps 634 mmHg 45%
    14:00 +10°C° 0 mm 2 mps 634 mmHg 49%
    15:00 +10°C° 0 mm 2 mps 634 mmHg 53%
    16:00 +8°C° 0 mm 2 mps 634 mmHg 59%
    17:00 +7°C° 0 mm 1 mps 633 mmHg 66%
    18:00 +5°C° 0 mm 1 mps 633 mmHg 72%
    19:00 +5°C° 0 mm 1 mps 633 mmHg 72%
    20:00 +5°C° 0 mm 1 mps 633 mmHg 71%
    21:00 +5°C° 0 mm 1 mps 633 mmHg 71%
    22:00 +5°C° 0 mm 1 mps 633 mmHg 70%
    23:00 +5°C° 0 mm 1 mps 633 mmHg 70%

    Day after tomorrow, 24 November, Friday

    Time Temperature Precipitation Wind Pressure Humidity
    00:00 +5°C° 0 mm 1 mps 633 mmHg 70%
    01:00 +4°C° 0 mm 2 mps 633 mmHg 68%
    02:00 +4°C° 0 mm 2 mps 633 mmHg 65%
    03:00 +5°C° 0 mm 2 mps 633 mmHg 63%
    04:00 +5°C° 0 mm 2 mps 633 mmHg 63%
    05:00 +4°C° 0 mm 2 mps 633 mmHg 64%
    06:00 +4°C° 0 mm 2 mps 632 mmHg 64%
    07:00 +5°C° 0 mm 2 mps 633 mmHg 60%
    08:00 +7°C° 0 mm 2 mps 634 mmHg 56%
    09:00 +8°C° 0 mm 2 mps 634 mmHg 51%
    10:00 +9°C° 0 mm 2 mps 635 mmHg 49%
    11:00 +10°C° 0 mm 3 mps 635 mmHg 46%
    12:00 +12°C° 0 mm 3 mps 635 mmHg 44%
    13:00 +11°C° 0 mm 3 mps 635 mmHg 48%
    14:00 +10°C° 0 mm 2 mps 634 mmHg 53%
    15:00 +9°C° 0 mm 2 mps 633 mmHg 57%
    16:00 +8°C° 0 mm 2 mps 633 mmHg 62%
    17:00 +6°C° 0 mm 2 mps 632 mmHg 67%
    18:00 +5°C° 0 mm 2 mps 632 mmHg 72%
    19:00 +5°C° 0 mm 2 mps 632 mmHg 73%
    20:00 +5°C° 0 mm 2 mps 632 mmHg 73%
    21:00 +4°C° 0 mm 2 mps 632 mmHg 73%
    22:00 +4°C° 0 mm 2 mps 632 mmHg 70%
    23:00 +4°C° 0 mm 2 mps 631 mmHg 67%

    25 November, Saturday

    Time Temperature Precipitation Wind Pressure Humidity
    00:00 +4°C° 0 mm 2 mps 631 mmHg 65%
    01:00 +4°C° 0 mm 2 mps 631 mmHg 64%
    02:00 +4°C° 0 mm 2 mps 631 mmHg 63%
    03:00 +4°C° 0 mm 2 mps 631 mmHg 62%
    04:00 +4°C° 0.2 mm 2 mps 631 mmHg 68%
    05:00 +3°C° 0.2 mm 2 mps 632 mmHg 73%
    06:00 +4°C° 0.2 mm 1 mps 632 mmHg 78%
    07:00 +3°C° 0.2 mm 2 mps 633 mmHg 80%
    08:00 +4°C° 0.2 mm 2 mps 633 mmHg 82%
    09:00 +4°C° 0.2 mm 2 mps 634 mmHg 84%
    10:00 +4°C° 0 mm 2 mps 634 mmHg 80%
    11:00 +5°C° 0 mm 2 mps 634 mmHg 75%
    12:00 +6°C° 0 mm 2 mps 635 mmHg 71%
    13:00 +6°C° 0 mm 2 mps 635 mmHg 71%
    14:00 +5°C° 0 mm 2 mps 635 mmHg 72%
    15:00 +5°C° 0 mm 2 mps 635 mmHg 73%
    16:00 +4°C° 0 mm 2 mps 635 mmHg 77%
    17:00 +3°C° 0 mm 2 mps 635 mmHg 82%
    18:00 +3°C° 0 mm 1 mps 635 mmHg 87%
    19:00 +2°C° 0 mm 1 mps 635 mmHg 88%
    20:00 +2°C° 0 mm 1 mps 635 mmHg 90%
    21:00 +2°C° 0 mm 1 mps 635 mmHg 91%
    22:00 +1°C° 0 mm 1 mps 635 mmHg 91%
    23:00 +1°C° 0 mm 1 mps 635 mmHg 91%

    26 November, Sunday

    Time Temperature Precipitation Wind Pressure Humidity
    00:00 +1°C° 0 mm 1 mps 635 mmHg 91%
    01:00 +1°C° 0 mm 1 mps 635 mmHg 92%
    02:00 +1°C° 0 mm 1 mps 635 mmHg 92%
    03:00 +1°C° 0 mm 1 mps 635 mmHg 92%
    04:00 0°C° 0 mm 1 mps 635 mmHg 93%
    05:00 0°C° 0 mm 1 mps 635 mmHg 93%
    06:00 0°C° 0 mm 1 mps 635 mmHg 93%
    07:00 0°C° 0 mm 1 mps 635 mmHg 87%
    08:00 +1°C° 0 mm 1 mps 636 mmHg 81%
    09:00 +2°C° 0 mm 1 mps 637 mmHg 75%
    10:00 +3°C° 0 mm 1 mps 637 mmHg 69%
    11:00 +4°C° 0 mm 1 mps 637 mmHg 63%
    12:00 +4°C° 0 mm 2 mps 637 mmHg 57%
    13:00 +3°C° 0 mm 2 mps 637 mmHg 59%
    14:00 +3°C° 0 mm 2 mps 637 mmHg 60%
    15:00 +3°C° 0 mm 2 mps 637 mmHg 62%
    16:00 +1°C° 0 mm 2 mps 636 mmHg 70%
    17:00 -1°C° 0 mm 2 mps 636 mmHg 78%
    18:00 -3°C° 0 mm 2 mps 636 mmHg 86%
    19:00 -3°C° 0 mm 2 mps 636 mmHg 84%
    20:00 -4°C° 0 mm 2 mps 636 mmHg 82%
    21:00 -4°C° 0 mm 2 mps 637 mmHg 81%
    22:00 -4°C° 0 mm 2 mps 637 mmHg 77%
    23:00 -4°C° 0 mm 2 mps 637 mmHg 74%

    27 November, Monday

    Time Temperature Precipitation Wind Pressure Humidity
    00:00 -4°C° 0 mm 2 mps 637 mmHg 70%
    01:00 -4°C° 0 mm 2 mps 637 mmHg 70%
    02:00 -3°C° 0 mm 1 mps 636 mmHg 69%
    03:00 -3°C° 0 mm 1 mps 636 mmHg 69%
    04:00 -3°C° 0 mm 1 mps 636 mmHg 67%
    05:00 -3°C° 0 mm 1 mps 636 mmHg 66%
    06:00 -3°C° 0 mm 1 mps 636 mmHg 64%
    07:00 -1°C° 0 mm 1 mps 637 mmHg 58%
    08:00 +1°C° 0 mm 1 mps 638 mmHg 51%
    09:00 +2°C° 0 mm 1 mps 638 mmHg 45%
    10:00 +4°C° 0 mm 1 mps 638 mmHg 43%
    11:00 +5°C° 0 mm 1 mps 638 mmHg 42%
    12:00 +5°C° 0 mm 2 mps 638 mmHg 40%
    13:00 +5°C° 0 mm 2 mps 637 mmHg 42%
    14:00 +5°C° 0 mm 2 mps 636 mmHg 45%
    15:00 +4°C° 0 mm 2 mps 636 mmHg 47%
    16:00 +2°C° 0 mm 2 mps 635 mmHg 54%
    17:00 -1°C° 0 mm 2 mps 634 mmHg 60%
    18:00 -1°C° 0 mm 1 mps 633 mmHg 67%
    19:00 -1°C° 0 mm 1 mps 633 mmHg 64%
    20:00 0°C° 0 mm 1 mps 633 mmHg 62%
    21:00 -2°C° 0 mm 2 mps 632 mmHg 60%
    22:00 -1°C° 0.1 mm 2 mps 632 mmHg 66%
    23:00 -1°C° 0.1 mm 2 mps 632 mmHg 72%
    Show more